This is the latest recevied weather packets stored in our database for station/object K8RRT. If no packets are shown the sender has not sent any weather packets the latest 10 day(s).
| Time | Temp. | Humidity | Pressure | Rain* | Wind** | Luminosity | Snow |
|---|---|---|---|---|---|---|---|
| 1777827483 | 13.33° C | 43% | 1015.9 hPa | 0 mm | - | 739 W/m² | - |
| 1777827181 | 13.33° C | 46% | 1015.9 hPa | 0 mm | - | 744 W/m² | - |
| 1777826876 | 12.22° C | 43% | 1016 hPa | 0 mm | - | 535 W/m² | - |
| 1777826575 | 13.33° C | 44% | 1016 hPa | 0 mm | - | 183 W/m² | - |
| 1777826270 | 13.33° C | 45% | 1016.2 hPa | 0 mm | - | 776 W/m² | - |
| 1777825969 | 13.33° C | 46% | 1015.8 hPa | 0 mm | - | 780 W/m² | - |
| 1777825665 | 13.33° C | 44% | 1016.2 hPa | 0 mm | - | 782 W/m² | - |
| 1777825363 | 12.78° C | 49% | 1016.3 hPa | 0 mm | - | 806 W/m² | - |
| 1777825059 | 12.78° C | 47% | 1016.4 hPa | 0 mm | - | 802 W/m² | - |
| 1777824755 | 12.78° C | 49% | 1016.4 hPa | 0 mm | - | 820 W/m² | - |
| 1777824453 | 13.33° C | 47% | 1016.7 hPa | 0 mm | - | 822 W/m² | - |
| 1777824148 | 12.78° C | 48% | 1016.3 hPa | 0 mm | - | 816 W/m² | - |
| 1777823845 | 12.78° C | 46% | 1016.5 hPa | 0 mm | - | 815 W/m² | - |
| 1777823543 | 12.78° C | 47% | 1016.5 hPa | 0 mm | - | 808 W/m² | - |
| 1777823239 | 12.22° C | 48% | 1016.6 hPa | 0 mm | - | 799 W/m² | - |
| 1777822937 | 12.22° C | 47% | 1016.5 hPa | 0 mm | - | 837 W/m² | - |
| 1777822635 | 12.22° C | 49% | 1016.8 hPa | 0 mm | - | 831 W/m² | - |
| 1777822333 | 11.67° C | 47% | 1016.7 hPa | 0 mm | - | 844 W/m² | - |
| 1777822030 | 11.67° C | 51% | 1016.8 hPa | 0 mm | - | 822 W/m² | - |
| 1777821728 | 11.11° C | 47% | 1017 hPa | 0 mm | - | 780 W/m² | - |
| 1777821425 | 11.67° C | 49% | 1016.9 hPa | 0 mm | - | 779 W/m² | - |
| 1777821122 | 11.11° C | 48% | 1016.9 hPa | 0 mm | - | 838 W/m² | - |
| 1777820819 | 11.67° C | 46% | 1016.8 hPa | 0 mm | - | 879 W/m² | - |
| 1777820515 | 11.67° C | 50% | 1016.8 hPa | 0 mm | - | 865 W/m² | - |
| 1777820211 | 11.11° C | 51% | 1016.9 hPa | 0 mm | - | 792 W/m² | - |
* Rain latest hour (hover to see other rain measurements)
** Current wind speed in m/s (hover to see current wind gust speed)